| time (UTC) | temp F | wind direction | speed MPH | gust MPH | rain 1hr in | rain 24hr in | rain mn in | humidity % | barometer mb |
| 20260901013117 | 72 | 218 | 0.0 | 0.0 | 0.00 | 0.01 | 0.01 | 82 | 1012.2 |
| 20260901011557 | 74 | 218 | 0.0 | 0.0 | 0.00 | 0.01 | 0.01 | 79 | 1012.0 |
| 20260901010058 | 75 | 218 | 0.0 | 2.0 | 0.00 | 0.01 | 0.01 | 77 | 1011.9 |
| 20260901004555 | 76 | 218 | 0.0 | 0.0 | 0.00 | 0.01 | 0.01 | 77 | 1012.0 |
| 20260901003055 | 77 | 218 | 0.0 | 2.0 | 0.00 | 0.01 | 0.01 | 75 | 1012.0 |
| 20260901001559 | 79 | 218 | 0.0 | 0.0 | 0.00 | 0.01 | 0.01 | 74 | 1012.0 |
| 20260831234608 | 81 | 218 | 0.0 | 1.0 | 0.00 | 0.01 | 0.01 | 67 | 1012.0 |
| 20260831233057 | 81 | 218 | 1.0 | 4.0 | 0.00 | 0.01 | 0.01 | 63 | 1012.1 |
| 20260831231554 | 81 | 265 | 1.0 | 4.0 | 0.00 | 0.01 | 0.01 | 64 | 1012.2 |
| 20260831230052 | 81 | 265 | 1.0 | 4.0 | 0.00 | 0.01 | 0.01 | 64 | 1012.2 |
| 20260831224552 | 81 | 265 | 2.0 | 4.0 | 0.00 | 0.01 | 0.01 | 62 | 1012.1 |
| 20260831223057 | 81 | 265 | 2.0 | 3.0 | 0.00 | 0.01 | 0.01 | 58 | 1012.1 |
| 20260831221552 | 81 | 265 | 1.0 | 3.0 | 0.00 | 0.01 | 0.01 | 60 | 1012.2 |
| 20260831220053 | 81 | 265 | 2.0 | 4.0 | 0.00 | 0.01 | 0.01 | 61 | 1012.2 |
| 20260831214602 | 81 | 263 | 2.0 | 4.0 | 0.00 | 0.02 | 0.01 | 58 | 1012.2 |
| 20260831213052 | 81 | 264 | 2.0 | 6.0 | 0.00 | 0.02 | 0.01 | 58 | 1012.3 |
| 20260831211549 | 81 | 261 | 3.0 | 6.0 | 0.00 | 0.02 | 0.01 | 58 | 1012.4 |
| 20260831210047 | 81 | 298 | 2.0 | 4.0 | 0.00 | 0.02 | 0.01 | 58 | 1012.5 |
| 20260831204549 | 81 | 298 | 3.0 | 9.0 | 0.00 | 0.02 | 0.01 | 55 | 1012.4 |
| 20260831203049 | 80 | 298 | 3.0 | 8.0 | 0.00 | 0.02 | 0.01 | 56 | 1012.3 |
| 20260831201549 | 81 | 289 | 5.0 | 8.0 | 0.00 | 0.02 | 0.01 | 57 | 1012.3 |
| 20260831200044 | 80 | 273 | 5.0 | 10.0 | 0.00 | 0.02 | 0.01 | 60 | 1012.4 |
| 20260831194545 | 80 | 283 | 3.0 | 9.0 | 0.00 | 0.02 | 0.01 | 63 | 1012.4 |
| 20260831193111 | 80 | 296 | 3.0 | 8.0 | 0.00 | 0.02 | 0.01 | 60 | 1012.4 |
| 20260831191540 | 79 | 302 | 3.0 | 6.0 | 0.00 | 0.02 | 0.01 | 65 | 1012.4 |
| 20260831190043 | 79 | 276 | 5.0 | 8.0 | 0.00 | 0.02 | 0.01 | 63 | 1012.6 |
| 20260831184533 | 78 | 279 | 4.0 | 8.0 | 0.00 | 0.02 | 0.01 | 64 | 1012.6 |
| 20260831183031 | 77 | 290 | 3.0 | 9.0 | 0.00 | 0.02 | 0.01 | 65 | 1012.5 |
| 20260831181544 | 77 | 269 | 4.0 | 8.0 | 0.00 | 0.02 | 0.01 | 68 | 1012.5 |
| 20260831180035 | 76 | 275 | 3.0 | 4.0 | 0.00 | 0.02 | 0.01 | 66 | 1012.4 |
| 20260831174527 | 76 | 273 | 0.0 | 5.0 | 0.00 | 0.02 | 0.01 | 68 | 1012.4 |
| 20260831173024 | 75 | 302 | 2.0 | 5.0 | 0.00 | 0.02 | 0.01 | 70 | 1012.5 |
| 20260831171522 | 75 | 277 | 2.0 | 7.0 | 0.00 | 0.02 | 0.01 | 74 | 1012.5 |
| 20260831170020 | 75 | 298 | 2.0 | 4.0 | 0.00 | 0.02 | 0.01 | 75 | 1012.4 |
| 20260831164515 | 74 | 298 | 0.0 | 4.0 | 0.00 | 0.02 | 0.01 | 78 | 1012.4 |
| 20260831163015 | 73 | 311 | 1.0 | 4.0 | 0.00 | 0.02 | 0.01 | 80 | 1012.6 |
| 20260831161515 | 72 | 271 | 1.0 | 4.0 | 0.00 | 0.02 | 0.01 | 81 | 1012.5 |
| 20260831160014 | 71 | 307 | 1.0 | 5.0 | 0.00 | 0.02 | 0.01 | 83 | 1012.5 |
| 20260831154509 | 70 | 307 | 1.0 | 5.0 | 0.00 | 0.02 | 0.01 | 85 | 1012.6 |
| 20260831153006 | 69 | 307 | 1.0 | 5.0 | 0.01 | 0.02 | 0.01 | 87 | 1012.2 |
| 20260831151506 | 68 | 311 | 3.0 | 7.0 | 0.01 | 0.02 | 0.01 | 88 | 1012.1 |
| 20260831150005 | 68 | 318 | 3.0 | 8.0 | 0.01 | 0.03 | 0.01 | 90 | 1012.1 |
| 20260831144507 | 67 | 319 | 3.0 | 8.0 | 0.01 | 0.03 | 0.01 | 91 | 1012.2 |
| 20260831143005 | 66 | 267 | 3.0 | 8.0 | 0.00 | 0.02 | 0.00 | 92 | 1012.1 |
| 20260831141503 | 65 | 302 | 2.0 | 8.0 | 0.00 | 0.02 | 0.00 | 92 | 1012.1 |
| 20260831140002 | 65 | 306 | 3.0 | 8.0 | 0.00 | 0.02 | 0.00 | 92 | 1012.0 |
| 20260831134606 | 65 | 300 | 4.0 | 8.0 | 0.00 | 0.02 | 0.00 | 92 | 1011.6 |
| 20260831133058 | 65 | 306 | 3.0 | 8.0 | 0.00 | 0.02 | 0.00 | 92 | 1011.5 |
| 20260831131602 | 65 | 293 | 2.0 | 6.0 | 0.00 | 0.02 | 0.00 | 92 | 1011.1 |
| 20260831130100 | 65 | 311 | 2.0 | 8.0 | 0.00 | 0.02 | 0.00 | 92 | 1010.7 |
| 20260831124552 | 66 | 320 | 2.0 | 9.0 | 0.00 | 0.02 | 0.00 | 92 | 1010.5 |
| 20260831123048 | 66 | 284 | 6.0 | 10.0 | 0.00 | 0.02 | 0.00 | 91 | 1010.2 |
| 20260831121547 | 67 | 304 | 3.0 | 10.0 | 0.00 | 0.02 | 0.00 | 90 | 1010.2 |
| 20260831120043 | 67 | 305 | 2.0 | 8.0 | 0.00 | 0.02 | 0.00 | 89 | 1009.9 |
| 20260831114540 | 68 | 297 | 2.0 | 5.0 | 0.00 | 0.02 | 0.00 | 89 | 1009.7 |
| 20260831113044 | 68 | 317 | 1.0 | 6.0 | 0.00 | 0.02 | 0.00 | 89 | 1009.4 |
| 20260831111634 | 69 | 317 | 1.0 | 5.0 | 0.00 | 0.02 | 0.00 | 89 | 1009.1 |
| 20260831110033 | 69 | 313 | 2.0 | 5.0 | 0.00 | 0.02 | 0.00 | 89 | 1008.6 |
| 20260831104536 | 70 | 334 | 1.0 | 5.0 | 0.00 | 0.02 | 0.00 | 89 | 1008.4 |
| 20260831103028 | 70 | 290 | 1.0 | 10.0 | 0.00 | 0.02 | 0.00 | 89 | 1008.2 |
| 20260831101527 | 70 | 347 | 2.0 | 8.0 | 0.00 | 0.02 | 0.00 | 89 | 1008.1 |
| 20260831100032 | 70 | 321 | 2.0 | 6.0 | 0.00 | 0.02 | 0.00 | 89 | 1008.0 |
| 20260831094532 | 71 | 315 | 0.0 | 4.0 | 0.00 | 0.02 | 0.00 | 90 | 1007.9 |
| 20260831093042 | 71 | 304 | 1.0 | 8.0 | 0.00 | 0.02 | 0.00 | 91 | 1007.6 |
| 20260831091522 | 71 | 302 | 3.0 | 8.0 | 0.00 | 0.02 | 0.00 | 92 | 1007.4 |
| 20260831090020 | 71 | 332 | 3.0 | 6.0 | 0.00 | 0.02 | 0.00 | 92 | 1007.2 |
| 20260831084516 | 72 | 348 | 2.0 | 6.0 | 0.00 | 0.02 | 0.00 | 92 | 1006.9 |
| 20260831083014 | 72 | 343 | 2.0 | 8.0 | 0.00 | 0.02 | 0.00 | 92 | 1006.8 |
| 20260831081514 | 72 | 334 | 3.0 | 10.0 | 0.00 | 0.02 | 0.00 | 92 | 1006.7 |
| 20260831080012 | 73 | 355 | 1.0 | 8.0 | 0.00 | 0.02 | 0.00 | 90 | 1006.7 |
| 20260831074510 | 73 | 343 | 3.0 | 12.0 | 0.00 | 0.02 | 0.00 | 90 | 1006.7 |
| 20260831073006 | 73 | 309 | 3.0 | 8.0 | 0.00 | 0.02 | 0.00 | 88 | 1006.5 |
| 20260831071502 | 73 | 309 | 2.0 | 8.0 | 0.00 | 0.02 | 0.00 | 86 | 1006.2 |
| 20260831070002 | 73 | 292 | 4.0 | 8.0 | 0.00 | 0.02 | 0.00 | 85 | 1006.4 |
| 20260831064559 | 73 | 275 | 3.0 | 8.0 | 0.00 | 0.02 | 0.00 | 84 | 1006.5 |
| 20260831063108 | 73 | 307 | 2.0 | 8.0 | 0.00 | 0.02 | 0.00 | 85 | 1006.5 |
| 20260831061552 | 72 | 240 | 2.0 | 5.0 | 0.00 | 0.02 | 0.00 | 83 | 1006.2 |
| 20260831060049 | 72 | 234 | 2.0 | 10.0 | 0.00 | 0.02 | 0.00 | 85 | 1005.9 |
| 20260831054546 | 71 | 220 | 1.0 | 5.0 | 0.00 | 0.03 | 0.00 | 84 | 1005.8 |
| 20260831053122 | 71 | 212 | 2.0 | 5.0 | 0.00 | 0.03 | 0.00 | 84 | 1005.6 |
| 20260831051543 | 71 | 210 | 3.0 | 7.0 | 0.00 | 0.03 | 0.00 | 84 | 1005.5 |
| 20260831050041 | 71 | 225 | 4.0 | 7.0 | 0.00 | 0.03 | 0.00 | 85 | 1005.4 |
| 20260831044634 | 71 | 211 | 2.0 | 6.0 | 0.00 | 0.03 | 0.03 | 85 | 1005.3 |
| 20260831043040 | 72 | 207 | 3.0 | 5.0 | 0.00 | 0.03 | 0.03 | 86 | 1005.2 |
| 20260831041540 | 72 | 213 | 2.0 | 5.0 | 0.00 | 0.03 | 0.03 | 87 | 1005.4 |
| 20260831040038 | 73 | 186 | 3.0 | 4.0 | 0.00 | 0.03 | 0.03 | 88 | 1005.5 |
| 20260831034536 | 74 | 169 | 1.0 | 4.0 | 0.00 | 0.03 | 0.03 | 88 | 1005.3 |
| 20260831033052 | 74 | 157 | 1.0 | 3.0 | 0.00 | 0.03 | 0.03 | 88 | 1005.3 |
| 20260831031538 | 75 | 156 | 0.0 | 1.0 | 0.00 | 0.03 | 0.03 | 88 | 1005.1 |
| 20260831030035 | 76 | 156 | 0.0 | 2.0 | 0.00 | 0.03 | 0.03 | 87 | 1004.9 |
| 20260831024535 | 77 | 156 | 0.0 | 0.0 | 0.00 | 0.03 | 0.03 | 87 | 1004.8 |
| 20260831023034 | 78 | 156 | 0.0 | 0.0 | 0.00 | 0.03 | 0.03 | 87 | 1004.7 |
| 20260831021534 | 79 | 156 | 0.0 | 0.0 | 0.00 | 0.03 | 0.03 | 87 | 1004.6 |
| 20260831020033 | 80 | 156 | 0.0 | 2.0 | 0.00 | 0.03 | 0.03 | 86 | 1004.3 |